Location: Gorze? G�rny
(49.8500°N, 19.5000°E)
Time: 04:09:40
(UTC+00:00)

Cosmos 2219 - Pass Details

Date: 13 May 2021
Orbit: 832 x 861 km, 71.1° (Epoch: 23 June)

Event Time Altitude Azimuth Distance (km) Brightness Sun altitude
Rises 23:14:03 0° 333° (NNW) 3,419 7.2 -21.1°
Reaches altitude 10° 23:16:37 10° 339° (NNW) 2,485 6.5 -21.0°
Maximum altitude 23:22:07 47° 53° (NE) 1,121 4.1 -20.8°
Drops below altitude 10° 23:27:37 10° 127° (SE) 2,489 5.4 -20.7°
Enters shadow 23:27:49 - 128° (SE) 2,559 5.5 -20.7°
